When you browse on this site, cookies collect data to enhance your experience and personalize the content and advertising you see.
Visit our Privacy Policy to learn more. By continuing to use the site, you agree to this use of cookies and data.
  • In Österreich
  • Länderverzeichnis
  • Für 7 Tage
  • Wassertemperatur
  • Satellitenkarten
  • Wetterkarte
  • News
  • Widgets
  • user-avatar
    Anmelden

    Stündliche Wetter Sylchet

    Heute, 22 April, Montag

    Zeit Temperatur Niederschläge Wind Luftdruck Luftfeuchtigkeit
    00:00 +28°C° 0 mm 2 m/S 755 mmHg 46%
    01:00 +28°C° 0 mm 1 m/S 754 mmHg 47%
    02:00 +27°C° 0 mm 1 m/S 754 mmHg 48%
    03:00 +27°C° 0 mm 1 m/S 754 mmHg 49%
    04:00 +27°C° 0 mm 1 m/S 754 mmHg 50%
    05:00 +27°C° 0 mm 1 m/S 754 mmHg 52%
    06:00 +26°C° 0 mm 2 m/S 754 mmHg 59%
    07:00 +28°C° 0.4 mm 3 m/S 754 mmHg 56%
    08:00 +29°C° 0.4 mm 3 m/S 755 mmHg 53%
    09:00 +30°C° 0.4 mm 4 m/S 755 mmHg 50%
    10:00 +33°C° 0 mm 4 m/S 755 mmHg 44%
    11:00 +35°C° 0 mm 3 m/S 755 mmHg 39%
    12:00 +37°C° 0 mm 3 m/S 754 mmHg 33%
    13:00 +38°C° 0 mm 2 m/S 754 mmHg 31%
    14:00 +39°C° 0 mm 2 m/S 753 mmHg 30%
    15:00 +39°C° 0 mm 1 m/S 752 mmHg 28%
    16:00 +37°C° 0 mm 1 m/S 752 mmHg 31%
    17:00 +36°C° 0 mm 1 m/S 752 mmHg 35%
    18:00 +34°C° 0 mm 1 m/S 752 mmHg 38%
    19:00 +33°C° 0 mm 1 m/S 753 mmHg 40%
    20:00 +32°C° 0 mm 1 m/S 753 mmHg 41%
    21:00 +31°C° 0 mm 2 m/S 754 mmHg 42%
    22:00 +30°C° 0 mm 1 m/S 754 mmHg 43%
    23:00 +29°C° 0 mm 1 m/S 754 mmHg 44%

    Morgen, 23 April, Dienstag

    Zeit Temperatur Niederschläge Wind Luftdruck Luftfeuchtigkeit
    00:00 +28°C° 0 mm 1 m/S 755 mmHg 45%
    01:00 +28°C° 0 mm 2 m/S 754 mmHg 46%
    02:00 +27°C° 0 mm 2 m/S 754 mmHg 48%
    03:00 +27°C° 0 mm 2 m/S 754 mmHg 49%
    04:00 +26°C° 0 mm 2 m/S 754 mmHg 52%
    05:00 +26°C° 0 mm 2 m/S 755 mmHg 55%
    06:00 +26°C° 0 mm 2 m/S 755 mmHg 57%
    07:00 +28°C° 0 mm 2 m/S 755 mmHg 51%
    08:00 +31°C° 0 mm 3 m/S 756 mmHg 45%
    09:00 +35°C° 0 mm 3 m/S 756 mmHg 40%
    10:00 +37°C° 0 mm 2 m/S 756 mmHg 35%
    11:00 +39°C° 0 mm 1 m/S 756 mmHg 31%
    12:00 +41°C° 0 mm 1 m/S 756 mmHg 26%
    13:00 +40°C° 0 mm 1 m/S 755 mmHg 26%
    14:00 +40°C° 0 mm 2 m/S 754 mmHg 25%
    15:00 +40°C° 0 mm 2 m/S 753 mmHg 24%
    16:00 +39°C° 0 mm 2 m/S 753 mmHg 28%
    17:00 +37°C° 0 mm 2 m/S 753 mmHg 32%
    18:00 +36°C° 0 mm 2 m/S 753 mmHg 36%
    19:00 +35°C° 0 mm 2 m/S 754 mmHg 38%
    20:00 +32°C° 0 mm 2 m/S 755 mmHg 40%
    21:00 +31°C° 0 mm 2 m/S 755 mmHg 42%
    22:00 +31°C° 0 mm 2 m/S 756 mmHg 44%
    23:00 +30°C° 0 mm 1 m/S 756 mmHg 45%

    übermorgen, 24 April, Mittwoch

    Zeit Temperatur Niederschläge Wind Luftdruck Luftfeuchtigkeit
    00:00 +29°C° 0 mm 1 m/S 756 mmHg 46%
    01:00 +29°C° 0.1 mm 1 m/S 756 mmHg 49%
    02:00 +28°C° 0.1 mm 1 m/S 755 mmHg 51%
    03:00 +28°C° 0.1 mm 1 m/S 755 mmHg 53%
    04:00 +27°C° 0 mm 2 m/S 755 mmHg 54%
    05:00 +27°C° 0 mm 2 m/S 756 mmHg 54%
    06:00 +27°C° 0 mm 2 m/S 756 mmHg 55%
    07:00 +30°C° 0 mm 2 m/S 756 mmHg 50%
    08:00 +32°C° 0 mm 2 m/S 757 mmHg 44%
    09:00 +35°C° 0 mm 2 m/S 757 mmHg 39%
    10:00 +37°C° 0 mm 2 m/S 757 mmHg 34%
    11:00 +39°C° 0 mm 1 m/S 756 mmHg 30%
    12:00 +41°C° 0 mm 1 m/S 756 mmHg 26%
    13:00 +41°C° 0 mm 1 m/S 755 mmHg 26%
    14:00 +41°C° 0 mm 2 m/S 754 mmHg 25%
    15:00 +41°C° 0 mm 2 m/S 753 mmHg 24%
    16:00 +40°C° 0 mm 2 m/S 753 mmHg 28%
    17:00 +39°C° 0 mm 2 m/S 753 mmHg 32%
    18:00 +36°C° 0 mm 1 m/S 753 mmHg 35%
    19:00 +35°C° 0 mm 1 m/S 753 mmHg 37%
    20:00 +34°C° 0 mm 1 m/S 754 mmHg 39%
    21:00 +32°C° 0 mm 1 m/S 755 mmHg 40%
    22:00 +32°C° 0 mm 1 m/S 755 mmHg 43%
    23:00 +31°C° 0 mm 1 m/S 755 mmHg 45%

    25 April, Donnerstag

    Zeit Temperatur Niederschläge Wind Luftdruck Luftfeuchtigkeit
    00:00 +30°C° 0 mm 2 m/S 755 mmHg 47%
    01:00 +30°C° 0 mm 2 m/S 755 mmHg 48%
    02:00 +29°C° 0 mm 1 m/S 754 mmHg 50%
    03:00 +29°C° 0 mm 1 m/S 754 mmHg 51%
    04:00 +28°C° 0 mm 1 m/S 754 mmHg 53%
    05:00 +28°C° 0 mm 1 m/S 755 mmHg 55%
    06:00 +28°C° 0 mm 1 m/S 755 mmHg 57%
    07:00 +30°C° 0 mm 1 m/S 755 mmHg 51%
    08:00 +33°C° 0 mm 1 m/S 756 mmHg 45%
    09:00 +35°C° 0 mm 1 m/S 756 mmHg 38%
    10:00 +37°C° 0 mm 1 m/S 756 mmHg 35%
    11:00 +40°C° 0 mm 1 m/S 755 mmHg 31%
    12:00 +42°C° 0 mm 1 m/S 755 mmHg 28%
    13:00 +42°C° 0 mm 1 m/S 754 mmHg 27%
    14:00 +42°C° 0 mm 2 m/S 753 mmHg 27%
    15:00 +42°C° 0 mm 2 m/S 752 mmHg 26%
    16:00 +41°C° 0 mm 2 m/S 752 mmHg 30%
    17:00 +39°C° 0 mm 2 m/S 752 mmHg 34%
    18:00 +37°C° 0 mm 1 m/S 752 mmHg 38%
    19:00 +36°C° 0 mm 1 m/S 753 mmHg 39%
    20:00 +35°C° 0 mm 1 m/S 753 mmHg 41%
    21:00 +32°C° 0 mm 0 m/S 754 mmHg 42%
    22:00 +33°C° 0 mm 1 m/S 754 mmHg 43%
    23:00 +32°C° 0 mm 1 m/S 754 mmHg 45%

    26 April, Freitag

    Zeit Temperatur Niederschläge Wind Luftdruck Luftfeuchtigkeit
    00:00 +32°C° 0 mm 1 m/S 754 mmHg 47%
    01:00 +31°C° 0 mm 1 m/S 753 mmHg 48%
    02:00 +31°C° 0 mm 2 m/S 753 mmHg 49%
    03:00 +30°C° 0 mm 2 m/S 752 mmHg 51%
    04:00 +30°C° 0 mm 1 m/S 753 mmHg 54%
    05:00 +29°C° 0 mm 1 m/S 753 mmHg 56%
    06:00 +29°C° 0 mm 1 m/S 754 mmHg 59%
    07:00 +31°C° 0 mm 1 m/S 754 mmHg 53%
    08:00 +33°C° 0 mm 1 m/S 755 mmHg 46%
    09:00 +36°C° 0 mm 1 m/S 755 mmHg 40%
    10:00 +37°C° 0 mm 1 m/S 755 mmHg 35%
    11:00 +40°C° 0 mm 1 m/S 754 mmHg 31%
    12:00 +42°C° 0 mm 1 m/S 754 mmHg 26%
    13:00 +42°C° 0 mm 2 m/S 753 mmHg 26%
    14:00 +42°C° 0 mm 2 m/S 752 mmHg 25%
    15:00 +43°C° 0 mm 2 m/S 751 mmHg 24%
    16:00 +41°C° 0 mm 2 m/S 751 mmHg 28%
    17:00 +40°C° 0 mm 2 m/S 751 mmHg 31%
    18:00 +39°C° 0 mm 1 m/S 751 mmHg 34%
    19:00 +37°C° 0 mm 1 m/S 752 mmHg 35%
    20:00 +36°C° 0 mm 1 m/S 752 mmHg 36%
    21:00 +35°C° 0 mm 1 m/S 753 mmHg 37%
    22:00 +34°C° 0 mm 1 m/S 753 mmHg 41%
    23:00 +34°C° 0 mm 2 m/S 753 mmHg 44%

    27 April, Samstag

    Zeit Temperatur Niederschläge Wind Luftdruck Luftfeuchtigkeit
    00:00 +32°C° 0 mm 2 m/S 753 mmHg 48%
    01:00 +31°C° 0 mm 2 m/S 753 mmHg 53%
    02:00 +30°C° 0 mm 1 m/S 753 mmHg 59%
    03:00 +30°C° 0 mm 1 m/S 752 mmHg 64%
    04:00 +29°C° 0 mm 1 m/S 753 mmHg 67%
    05:00 +29°C° 0 mm 2 m/S 753 mmHg 69%
    06:00 +29°C° 0 mm 2 m/S 754 mmHg 72%
    07:00 +31°C° 0 mm 2 m/S 754 mmHg 67%
    08:00 +34°C° 0 mm 3 m/S 755 mmHg 61%
    09:00 +35°C° 0 mm 3 m/S 755 mmHg 56%
    10:00 +37°C° 0 mm 3 m/S 754 mmHg 48%
    11:00 +39°C° 0 mm 2 m/S 754 mmHg 40%
    12:00 +41°C° 0 mm 2 m/S 754 mmHg 33%
    13:00 +43°C° 0 mm 3 m/S 753 mmHg 31%
    14:00 +43°C° 0 mm 3 m/S 752 mmHg 29%
    15:00 +44°C° 0 mm 3 m/S 751 mmHg 27%
    16:00 +43°C° 0 mm 3 m/S 751 mmHg 30%
    17:00 +40°C° 0 mm 2 m/S 751 mmHg 32%
    18:00 +39°C° 0 mm 2 m/S 751 mmHg 35%
    19:00 +38°C° 0 mm 2 m/S 751 mmHg 39%
    20:00 +36°C° 0 mm 2 m/S 752 mmHg 43%
    21:00 +35°C° 0 mm 3 m/S 752 mmHg 47%
    22:00 +34°C° 0 mm 3 m/S 752 mmHg 52%
    23:00 +34°C° 0 mm 2 m/S 752 mmHg 56%
    Mehr zeigen